Time,TemperatureF,DewpointF,PressureIn,WindDirection,WindDirectionDegrees,WindSpeedMPH,WindSpeedGustMPH,Humidity,HourlyPrecipIn,Conditions,Clouds,dailyrainin,SoftwareType,DateUTC
2013-10-11 00:04:00,66.4,57.1,29.78,SSE,162,16.0,22.0,72,0.00,,,0.00,Wunderground v.1.15,2013-10-11 05:04:00,
2013-10-11 00:09:00,66.3,57.0,29.78,South,190,16.0,22.0,72,0.00,,,0.00,Wunderground v.1.15,2013-10-11 05:09:00,
2013-10-11 00:14:00,66.2,56.9,29.78,SSE,157,15.0,24.0,72,0.00,,,0.00,Wunderground v.1.15,2013-10-11 05:14:00,
2013-10-11 00:19:00,66.1,56.8,29.79,SSE,167,15.0,24.0,72,0.00,,,0.00,Wunderground v.1.15,2013-10-11 05:19:00,
2013-10-11 00:24:00,65.9,57.0,29.79,SSE,163,14.0,19.0,73,0.00,,,0.00,Wunderground v.1.15,2013-10-11 05:24:00,
2013-10-11 00:29:00,65.8,56.9,29.79,SSE,161,13.0,22.0,73,0.00,,,0.00,Wunderground v.1.15,2013-10-11 05:29:00,
2013-10-11 00:34:00,65.7,56.8,29.79,SSE,166,14.0,22.0,73,0.00,,,0.00,Wunderground v.1.15,2013-10-11 05:34:00,
2013-10-11 00:39:00,65.5,56.6,29.78,SSE,156,13.0,22.0,73,0.00,,,0.00,Wunderground v.1.15,2013-10-11 05:39:00,
2013-10-11 00:44:00,65.4,56.5,29.78,SSE,148,13.0,18.0,73,0.00,,,0.00,Wunderground v.1.15,2013-10-11 05:44:00,
2013-10-11 00:49:00,65.2,56.7,29.77,SE,144,14.0,25.0,74,0.00,,,0.00,Wunderground v.1.15,2013-10-11 05:49:00,
2013-10-11 00:55:00,65.0,56.5,29.77,SSE,147,14.0,21.0,74,0.00,,,0.00,Wunderground v.1.15,2013-10-11 05:55:00,
2013-10-11 01:00:00,65.0,56.5,29.77,SE,146,15.0,22.0,74,0.00,,,0.00,Wunderground v.1.15,2013-10-11 06:00:00,
2013-10-11 01:05:00,65.0,56.5,29.77,SE,146,15.0,22.0,74,0.00,,,0.00,Wunderground v.1.15,2013-10-11 06:05:00,
2013-10-11 01:11:00,65.0,56.5,29.78,South,178,14.0,15.0,74,0.00,,,0.00,Wunderground v.1.15,2013-10-11 06:11:00,
2013-10-11 01:16:00,65.0,56.5,29.78,South,175,14.0,19.0,74,0.00,,,0.00,Wunderground v.1.15,2013-10-11 06:16:00,
2013-10-11 01:21:00,64.9,56.4,29.78,South,173,14.0,16.0,74,0.00,,,0.00,Wunderground v.1.15,2013-10-11 06:21:00,
2013-10-11 01:26:00,65.0,56.5,29.78,SSE,162,14.0,19.0,74,0.00,,,0.00,Wunderground v.1.15,2013-10-11 06:26:00,
2013-10-11 01:31:00,64.9,56.4,29.78,South,175,15.0,18.0,74,0.00,,,0.00,Wunderground v.1.15,2013-10-11 06:31:00,
2013-10-11 01:37:00,64.8,56.3,29.80,South,186,14.0,19.0,74,0.00,,,0.00,Wunderground v.1.15,2013-10-11 06:37:00,
2013-10-11 01:42:00,64.9,56.4,29.81,South,177,13.0,16.0,74,0.00,,,0.00,Wunderground v.1.15,2013-10-11 06:42:00,
2013-10-11 01:47:00,64.9,56.4,29.80,South,171,12.0,17.0,74,0.00,,,0.00,Wunderground v.1.15,2013-10-11 06:47:00,
2013-10-11 01:53:00,64.9,56.4,29.79,South,169,14.0,19.0,74,0.00,,,0.00,Wunderground v.1.15,2013-10-11 06:53:00,
2013-10-11 01:59:00,64.8,56.3,29.79,South,178,14.0,19.0,74,0.00,,,0.00,Wunderground v.1.15,2013-10-11 06:59:00,
2013-10-11 02:04:00,64.9,56.4,29.78,South,182,14.0,23.0,74,0.00,,,0.00,Wunderground v.1.15,2013-10-11 07:04:00,
2013-10-11 02:09:00,64.8,56.3,29.78,South,170,15.0,23.0,74,0.00,,,0.00,Wunderground v.1.15,2013-10-11 07:09:00,
2013-10-11 02:14:00,64.9,56.4,29.77,SSE,164,16.0,22.0,74,0.00,,,0.00,Wunderground v.1.15,2013-10-11 07:14:00,
2013-10-11 02:20:00,64.9,56.4,29.77,SSE,165,17.0,17.0,74,0.00,,,0.00,Wunderground v.1.15,2013-10-11 07:20:00,
2013-10-11 02:25:00,64.9,56.4,29.77,SSE,167,16.0,24.0,74,0.00,,,0.00,Wunderground v.1.15,2013-10-11 07:25:00,
2013-10-11 02:31:00,64.9,56.4,29.77,SSE,151,17.0,23.0,74,0.00,,,0.00,Wunderground v.1.15,2013-10-11 07:31:00,
2013-10-11 02:37:00,64.9,56.4,29.76,SSE,158,17.0,23.0,74,0.00,,,0.00,Wunderground v.1.15,2013-10-11 07:37:00,
2013-10-11 02:42:00,65.0,56.5,29.76,SSE,159,17.0,22.0,74,0.00,,,0.00,Wunderground v.1.15,2013-10-11 07:42:00,
2013-10-11 02:48:00,65.0,56.1,29.76,SSE,163,17.0,23.0,73,0.00,,,0.00,Wunderground v.1.15,2013-10-11 07:48:00,
2013-10-11 02:54:00,64.9,56.4,29.76,SSE,165,17.0,25.0,74,0.00,,,0.00,Wunderground v.1.15,2013-10-11 07:54:00,
2013-10-11 03:00:00,64.9,56.4,29.76,SSE,167,17.0,21.0,74,0.00,,,0.00,Wunderground v.1.15,2013-10-11 08:00:00,
2013-10-11 03:05:00,65.0,56.5,29.76,South,169,16.0,22.0,74,0.00,,,0.00,Wunderground v.1.15,2013-10-11 08:05:00,
2013-10-11 03:11:00,65.1,56.6,29.76,SSE,163,17.0,20.0,74,0.00,,,0.00,Wunderground v.1.15,2013-10-11 08:11:00,
2013-10-11 03:16:00,65.2,56.7,29.75,SSE,165,17.0,25.0,74,0.00,,,0.00,Wunderground v.1.15,2013-10-11 08:16:00,
2013-10-11 03:21:00,65.3,56.4,29.75,SSE,161,17.0,20.0,73,0.00,,,0.00,Wunderground v.1.15,2013-10-11 08:21:00,
2013-10-11 03:26:00,65.3,56.8,29.75,SSE,164,17.0,20.0,74,0.00,,,0.00,Wunderground v.1.15,2013-10-11 08:26:00,
2013-10-11 03:32:00,65.1,57.0,29.75,SSE,163,16.0,20.0,75,0.00,,,0.00,Wunderground v.1.15,2013-10-11 08:32:00,
2013-10-11 03:37:00,64.6,57.2,29.76,SSE,167,16.0,21.0,77,0.00,,,0.00,Wunderground v.1.15,2013-10-11 08:37:00,
2013-10-11 03:42:00,64.5,57.5,29.76,South,175,16.0,18.0,78,0.00,,,0.00,Wunderground v.1.15,2013-10-11 08:42:00,
2013-10-11 03:47:00,64.5,57.1,29.75,South,171,17.0,27.0,77,0.00,,,0.00,Wunderground v.1.15,2013-10-11 08:47:00,
2013-10-11 03:53:00,64.7,57.3,29.75,SSE,165,18.0,26.0,77,0.00,,,0.00,Wunderground v.1.15,2013-10-11 08:53:00,
2013-10-11 03:58:00,64.8,57.1,29.75,South,169,18.0,26.0,76,0.00,,,0.00,Wunderground v.1.15,2013-10-11 08:58:00,
2013-10-11 04:04:00,64.8,57.4,29.74,SSE,150,18.0,26.0,77,0.00,,,0.00,Wunderground v.1.15,2013-10-11 09:04:00,
2013-10-11 04:09:00,64.6,57.6,29.74,SSE,167,18.0,27.0,78,0.00,,,0.00,Wunderground v.1.15,2013-10-11 09:09:00,
2013-10-11 04:14:00,64.2,57.5,29.74,South,178,17.0,22.0,79,0.00,,,0.00,Wunderground v.1.15,2013-10-11 09:14:00,
2013-10-11 04:20:00,64.1,57.8,29.74,SSE,153,16.0,16.0,80,0.00,,,0.00,Wunderground v.1.15,2013-10-11 09:20:00,
2013-10-11 04:25:00,63.9,57.6,29.74,SSE,166,17.0,22.0,80,0.00,,,0.00,Wunderground v.1.15,2013-10-11 09:25:00,
2013-10-11 04:30:00,63.9,57.6,29.73,South,171,17.0,17.0,80,0.00,,,0.00,Wunderground v.1.15,2013-10-11 09:30:00,
2013-10-11 04:35:00,63.7,57.8,29.74,SSE,148,17.0,22.0,81,0.00,,,0.00,Wunderground v.1.15,2013-10-11 09:35:00,
2013-10-11 04:41:00,63.6,57.7,29.74,South,169,16.0,22.0,81,0.00,,,0.00,Wunderground v.1.15,2013-10-11 09:41:00,
2013-10-11 04:46:00,63.4,57.8,29.73,South,175,16.0,22.0,82,0.00,,,0.00,Wunderground v.1.15,2013-10-11 09:46:00,
2013-10-11 04:51:00,62.9,57.7,29.73,South,174,16.0,20.0,83,0.00,,,0.00,Wunderground v.1.15,2013-10-11 09:51:00,
2013-10-11 04:56:00,63.2,57.6,29.73,SSE,162,16.0,24.0,82,0.00,,,0.00,Wunderground v.1.15,2013-10-11 09:56:00,
2013-10-11 05:01:00,63.5,57.6,29.73,SSE,165,17.0,22.0,81,0.00,,,0.00,Wunderground v.1.15,2013-10-11 10:01:00,
2013-10-11 05:07:00,63.2,57.6,29.73,South,175,17.0,23.0,82,0.00,,,0.00,Wunderground v.1.15,2013-10-11 10:07:00,
2013-10-11 05:12:00,63.5,57.6,29.73,South,171,17.0,22.0,81,0.00,,,0.00,Wunderground v.1.15,2013-10-11 10:12:00,
2013-10-11 05:18:00,63.8,57.9,29.72,SSE,167,18.0,24.0,81,0.00,,,0.00,Wunderground v.1.15,2013-10-11 10:18:00,
2013-10-11 05:23:00,64.3,58.0,29.72,South,184,19.0,26.0,80,0.00,,,0.00,Wunderground v.1.15,2013-10-11 10:23:00,
2013-10-11 05:28:00,64.7,58.0,29.72,South,169,20.0,30.0,79,0.00,,,0.00,Wunderground v.1.15,2013-10-11 10:28:00,
2013-10-11 05:33:00,64.7,58.0,29.72,SSE,161,19.0,28.0,79,0.00,,,0.00,Wunderground v.1.15,2013-10-11 10:33:00,
2013-10-11 05:38:00,64.6,57.9,29.72,SSE,167,19.0,28.0,79,0.00,,,0.00,Wunderground v.1.15,2013-10-11 10:38:00,
2013-10-11 05:44:00,64.4,58.1,29.72,South,182,18.0,28.0,80,0.00,,,0.00,Wunderground v.1.15,2013-10-11 10:44:00,
2013-10-11 05:50:00,64.3,57.6,29.73,South,171,18.0,24.0,79,0.00,,,0.00,Wunderground v.1.15,2013-10-11 10:50:00,
2013-10-11 05:55:00,63.9,57.6,29.73,South,178,16.0,24.0,80,0.00,,,0.00,Wunderground v.1.15,2013-10-11 10:55:00,
2013-10-11 06:01:00,63.7,57.8,29.73,South,177,15.0,19.0,81,0.00,,,0.00,Wunderground v.1.15,2013-10-11 11:01:00,
2013-10-11 06:06:00,63.7,57.8,29.72,South,182,15.0,22.0,81,0.00,,,0.00,Wunderground v.1.15,2013-10-11 11:06:00,
2013-10-11 06:12:00,63.7,57.8,29.72,South,186,15.0,20.0,81,0.00,,,0.00,Wunderground v.1.15,2013-10-11 11:12:00,
2013-10-11 06:17:00,63.6,57.7,29.72,South,182,15.0,20.0,81,0.00,,,0.00,Wunderground v.1.15,2013-10-11 11:17:00,
2013-10-11 06:23:00,63.4,57.8,29.72,South,183,14.0,18.0,82,0.00,,,0.00,Wunderground v.1.15,2013-10-11 11:23:00,
2013-10-11 06:28:00,63.2,57.6,29.72,SSW,194,14.0,22.0,82,0.00,,,0.00,Wunderground v.1.15,2013-10-11 11:28:00,
2013-10-11 06:33:00,63.2,57.6,29.72,South,175,13.0,19.0,82,0.00,,,0.00,Wunderground v.1.15,2013-10-11 11:33:00,
2013-10-11 06:38:00,63.1,57.5,29.72,South,171,13.0,19.0,82,0.00,,,0.00,Wunderground v.1.15,2013-10-11 11:38:00,
2013-10-11 06:43:00,63.1,57.9,29.72,South,182,14.0,20.0,83,0.00,,,0.00,Wunderground v.1.15,2013-10-11 11:43:00,
2013-10-11 06:48:00,63.1,57.9,29.72,South,177,14.0,20.0,83,0.00,,,0.00,Wunderground v.1.15,2013-10-11 11:48:00,
2013-10-11 06:54:00,63.1,57.9,29.72,SSE,167,15.0,21.0,83,0.00,,,0.00,Wunderground v.1.15,2013-10-11 11:54:00,
2013-10-11 06:59:00,63.0,57.8,29.72,South,187,13.0,21.0,83,0.00,,,0.00,Wunderground v.1.15,2013-10-11 11:59:00,
2013-10-11 07:04:00,63.1,57.9,29.72,South,180,14.0,22.0,83,0.00,,,0.00,Wunderground v.1.15,2013-10-11 12:04:00,
2013-10-11 07:09:00,62.8,57.6,29.72,South,182,15.0,22.0,83,0.00,,,0.00,Wunderground v.1.15,2013-10-11 12:09:00,
2013-10-11 07:14:00,62.7,57.5,29.72,South,173,14.0,21.0,83,0.00,,,0.00,Wunderground v.1.15,2013-10-11 12:14:00,
2013-10-11 07:19:00,62.6,57.7,29.72,South,184,14.0,21.0,84,0.00,,,0.00,Wunderground v.1.15,2013-10-11 12:19:00,
2013-10-11 07:25:00,62.5,57.6,29.72,South,172,14.0,22.0,84,0.00,,,0.00,Wunderground v.1.15,2013-10-11 12:25:00,
2013-10-11 07:30:00,62.5,57.6,29.72,South,174,14.0,22.0,84,0.00,,,0.00,Wunderground v.1.15,2013-10-11 12:30:00,
2013-10-11 07:36:00,62.3,57.7,29.72,South,182,14.0,22.0,85,0.00,,,0.00,Wunderground v.1.15,2013-10-11 12:36:00,
2013-10-11 07:42:00,62.2,57.6,29.72,South,173,14.0,22.0,85,0.00,,,0.00,Wunderground v.1.15,2013-10-11 12:42:00,
2013-10-11 07:47:00,62.1,57.5,29.72,SSW,192,13.0,22.0,85,0.00,,,0.00,Wunderground v.1.15,2013-10-11 12:47:00,
2013-10-11 07:52:00,62.0,57.4,29.72,South,187,13.0,22.0,85,0.00,,,0.00,Wunderground v.1.15,2013-10-11 12:52:00,
2013-10-11 07:57:00,62.1,57.9,29.72,SSE,160,13.0,22.0,86,0.00,,,0.00,Wunderground v.1.15,2013-10-11 12:57:00,
2013-10-11 08:02:00,62.1,57.9,29.73,South,173,13.0,19.0,86,0.00,,,0.00,Wunderground v.1.15,2013-10-11 13:02:00,
2013-10-11 08:08:00,62.1,57.9,29.72,SSE,166,14.0,19.0,86,0.00,,,0.00,Wunderground v.1.15,2013-10-11 13:08:00,
2013-10-11 08:14:00,62.2,58.0,29.72,South,181,14.0,22.0,86,0.00,,,0.00,Wunderground v.1.15,2013-10-11 13:14:00,
2013-10-11 08:19:00,62.2,58.0,29.72,South,171,14.0,22.0,86,0.00,,,0.00,Wunderground v.1.15,2013-10-11 13:19:00,
2013-10-11 08:24:00,62.4,58.2,29.73,South,175,14.0,21.0,86,0.00,,,0.00,Wunderground v.1.15,2013-10-11 13:24:00,
2013-10-11 08:30:00,62.6,58.4,29.73,South,176,14.0,20.0,86,0.00,,,0.00,Wunderground v.1.15,2013-10-11 13:30:00,
2013-10-11 08:36:00,62.9,58.6,29.73,South,177,14.0,21.0,86,0.00,,,0.00,Wunderground v.1.15,2013-10-11 13:36:00,
2013-10-11 08:42:00,63.1,58.8,29.73,SSE,167,14.0,21.0,86,0.00,,,0.00,Wunderground v.1.15,2013-10-11 13:42:00,
2013-10-11 08:47:00,63.3,58.7,29.73,South,175,15.0,21.0,85,0.00,,,0.00,Wunderground v.1.15,2013-10-11 13:47:00,
2013-10-11 08:52:00,63.6,59.0,29.73,South,180,15.0,22.0,85,0.00,,,0.00,Wunderground v.1.15,2013-10-11 13:52:00,
2013-10-11 08:57:00,63.9,59.3,29.73,South,175,15.0,22.0,85,0.00,,,0.00,Wunderground v.1.15,2013-10-11 13:57:00,
2013-10-11 09:02:00,64.1,59.5,29.73,South,182,15.0,21.0,85,0.00,,,0.00,Wunderground v.1.15,2013-10-11 14:02:00,
2013-10-11 09:08:00,64.4,59.5,29.73,South,186,15.0,22.0,84,0.00,,,0.00,Wunderground v.1.15,2013-10-11 14:08:00,
2013-10-11 09:13:00,64.8,59.9,29.73,SSW,200,15.0,18.0,84,0.00,,,0.00,Wunderground v.1.15,2013-10-11 14:13:00,
2013-10-11 09:18:00,65.1,60.1,29.73,South,181,15.0,22.0,84,0.00,,,0.00,Wunderground v.1.15,2013-10-11 14:18:00,
2013-10-11 09:23:00,65.4,60.1,29.73,South,188,16.0,25.0,83,0.00,,,0.00,Wunderground v.1.15,2013-10-11 14:23:00,
2013-10-11 09:28:00,65.6,60.3,29.73,SSW,205,17.0,27.0,83,0.00,,,0.00,Wunderground v.1.15,2013-10-11 14:28:00,
2013-10-11 09:34:00,66.0,60.7,29.73,South,173,16.0,23.0,83,0.00,,,0.00,Wunderground v.1.15,2013-10-11 14:34:00,
2013-10-11 09:39:00,66.2,60.9,29.73,South,183,16.0,24.0,83,0.00,,,0.00,Wunderground v.1.15,2013-10-11 14:39:00,
2013-10-11 09:44:00,66.5,60.8,29.73,SSW,192,16.0,24.0,82,0.00,,,0.00,Wunderground v.1.15,2013-10-11 14:44:00,
2013-10-11 09:49:00,67.0,61.3,29.74,SSW,211,15.0,24.0,82,0.00,,,0.00,Wunderground v.1.15,2013-10-11 14:49:00,
2013-10-11 09:54:00,67.3,61.6,29.73,South,190,15.0,24.0,82,0.00,,,0.00,Wunderground v.1.15,2013-10-11 14:54:00,
2013-10-11 10:00:00,67.5,61.5,29.73,South,184,17.0,24.0,81,0.00,,,0.00,Wunderground v.1.15,2013-10-11 15:00:00,
2013-10-11 10:05:00,67.9,61.9,29.73,SSW,213,18.0,25.0,81,0.00,,,0.00,Wunderground v.1.15,2013-10-11 15:05:00,
2013-10-11 10:10:00,68.3,62.2,29.74,South,180,17.0,17.0,81,0.00,,,0.00,Wunderground v.1.15,2013-10-11 15:10:00,
2013-10-11 10:15:00,68.8,62.0,29.74,South,186,16.0,22.0,79,0.00,,,0.00,Wunderground v.1.15,2013-10-11 15:15:00,
2013-10-11 10:20:00,69.2,62.4,29.74,SSW,201,16.0,16.0,79,0.00,,,0.00,Wunderground v.1.15,2013-10-11 15:20:00,
2013-10-11 10:25:00,69.5,62.3,29.74,SW,219,16.0,26.0,78,0.00,,,0.00,Wunderground v.1.15,2013-10-11 15:25:00,
2013-10-11 10:31:00,70.0,62.5,29.74,SW,214,17.0,22.0,77,0.00,,,0.00,Wunderground v.1.15,2013-10-11 15:31:00,
2013-10-11 10:37:00,70.4,62.5,29.74,SSW,197,16.0,26.0,76,0.00,,,0.00,Wunderground v.1.15,2013-10-11 15:37:00,
2013-10-11 10:43:00,70.4,62.5,29.73,SW,216,17.0,27.0,76,0.00,,,0.00,Wunderground v.1.15,2013-10-11 15:43:00,
2013-10-11 10:49:00,70.8,62.5,29.73,SW,227,19.0,27.0,75,0.00,,,0.00,Wunderground v.1.15,2013-10-11 15:49:00,
2013-10-11 10:54:00,71.4,62.7,29.74,SSW,207,17.0,24.0,74,0.00,,,0.00,Wunderground v.1.15,2013-10-11 15:54:00,
2013-10-11 10:59:00,71.6,62.1,29.74,SW,221,16.0,25.0,72,0.00,,,0.00,Wunderground v.1.15,2013-10-11 15:59:00,
2013-10-11 11:04:00,71.5,62.0,29.74,SSW,209,17.0,24.0,72,0.00,,,0.00,Wunderground v.1.15,2013-10-11 16:04:00,
2013-10-11 11:10:00,71.9,62.4,29.74,SW,220,17.0,17.0,72,0.00,,,0.00,Wunderground v.1.15,2013-10-11 16:10:00,
2013-10-11 11:15:00,72.3,62.4,29.74,SW,223,16.0,24.0,71,0.00,,,0.00,Wunderground v.1.15,2013-10-11 16:15:00,
2013-10-11 11:20:00,72.6,62.7,29.74,SSW,212,16.0,16.0,71,0.00,,,0.00,Wunderground v.1.15,2013-10-11 16:20:00,
2013-10-11 11:25:00,72.4,62.1,29.74,SSW,213,15.0,23.0,70,0.00,,,0.00,Wunderground v.1.15,2013-10-11 16:25:00,
2013-10-11 11:30:00,73.1,62.7,29.73,South,175,15.0,23.0,70,0.00,,,0.00,Wunderground v.1.15,2013-10-11 16:30:00,
2013-10-11 11:36:00,73.3,61.7,29.74,SSW,202,15.0,24.0,67,0.00,,,0.00,Wunderground v.1.15,2013-10-11 16:36:00,
2013-10-11 11:41:00,73.1,61.9,29.74,SSW,192,15.0,22.0,68,0.00,,,0.00,Wunderground v.1.15,2013-10-11 16:41:00,
2013-10-11 11:46:00,73.4,61.3,29.74,SSW,195,16.0,25.0,66,0.00,,,0.00,Wunderground v.1.15,2013-10-11 16:46:00,
2013-10-11 11:52:00,74.0,62.3,29.74,SSW,202,16.0,18.0,67,0.00,,,0.00,Wunderground v.1.15,2013-10-11 16:52:00,
2013-10-11 11:57:00,73.8,61.3,29.74,SW,219,15.0,24.0,65,0.00,,,0.00,Wunderground v.1.15,2013-10-11 16:57:00,
2013-10-11 12:02:00,73.9,61.8,29.74,SW,214,15.0,21.0,66,0.00,,,0.00,Wunderground v.1.15,2013-10-11 17:02:00,
2013-10-11 12:08:00,74.4,60.5,29.73,SSW,212,15.0,23.0,62,0.00,,,0.00,Wunderground v.1.15,2013-10-11 17:08:00,
2013-10-11 12:14:00,74.7,60.8,29.73,SW,218,14.0,19.0,62,0.00,,,0.00,Wunderground v.1.15,2013-10-11 17:14:00,
2013-10-11 12:20:00,73.9,60.5,29.74,SSW,210,13.0,20.0,63,0.00,,,0.00,Wunderground v.1.15,2013-10-11 17:20:00,
2013-10-11 12:26:00,75.1,61.2,29.73,SSW,211,13.0,21.0,62,0.00,,,0.00,Wunderground v.1.15,2013-10-11 17:26:00,
2013-10-11 12:32:00,75.2,60.4,29.73,SSW,198,13.0,17.0,60,0.00,,,0.00,Wunderground v.1.15,2013-10-11 17:32:00,
2013-10-11 12:37:00,75.4,60.5,29.73,SW,214,13.0,20.0,60,0.00,,,0.00,Wunderground v.1.15,2013-10-11 17:37:00,
2013-10-11 12:42:00,75.8,59.5,29.73,SW,235,13.0,22.0,57,0.00,,,0.00,Wunderground v.1.15,2013-10-11 17:42:00,
2013-10-11 12:47:00,76.1,60.2,29.73,SSW,202,13.0,22.0,58,0.00,,,0.00,Wunderground v.1.15,2013-10-11 17:47:00,
2013-10-11 12:53:00,76.5,60.1,29.72,SW,227,12.0,16.0,57,0.00,,,0.00,Wunderground v.1.15,2013-10-11 17:53:00,
2013-10-11 12:58:00,76.6,60.2,29.72,SSW,211,12.0,20.0,57,0.00,,,0.00,Wunderground v.1.15,2013-10-11 17:58:00,
2013-10-11 13:04:00,76.7,60.3,29.72,SSW,202,14.0,24.0,57,0.00,,,0.00,Wunderground v.1.15,2013-10-11 18:04:00,
2013-10-11 13:10:00,77.0,59.1,29.72,SW,225,15.0,15.0,54,0.00,,,0.00,Wunderground v.1.15,2013-10-11 18:10:00,
2013-10-11 13:15:00,77.8,60.3,29.72,SSW,211,12.0,19.0,55,0.00,,,0.00,Wunderground v.1.15,2013-10-11 18:15:00,
2013-10-11 13:21:00,78.0,59.5,29.72,SSW,195,12.0,19.0,53,0.00,,,0.00,Wunderground v.1.15,2013-10-11 18:21:00,
2013-10-11 13:26:00,77.4,59.5,29.72,SW,226,15.0,25.0,54,0.00,,,0.00,Wunderground v.1.15,2013-10-11 18:26:00,
2013-10-11 13:32:00,78.4,59.3,29.72,SW,223,14.0,16.0,52,0.00,,,0.00,Wunderground v.1.15,2013-10-11 18:32:00,
2013-10-11 13:37:00,78.3,57.6,29.71,SSW,208,13.0,22.0,49,0.00,,,0.00,Wunderground v.1.15,2013-10-11 18:37:00,
2013-10-11 13:43:00,78.8,56.9,29.71,SSW,205,15.0,22.0,47,0.00,,,0.00,Wunderground v.1.15,2013-10-11 18:43:00,
2013-10-11 13:49:00,79.0,55.8,29.71,WSW,251,14.0,22.0,45,0.00,,,0.00,Wunderground v.1.15,2013-10-11 18:49:00,
2013-10-11 13:55:00,78.9,55.1,29.71,SW,221,15.0,20.0,44,0.00,,,0.00,Wunderground v.1.15,2013-10-11 18:55:00,
2013-10-11 14:01:00,79.3,56.1,29.71,SSW,193,14.0,18.0,45,0.00,,,0.00,Wunderground v.1.15,2013-10-11 19:01:00,
2013-10-11 14:07:00,79.4,55.0,29.70,SW,220,14.0,22.0,43,0.00,,,0.00,Wunderground v.1.15,2013-10-11 19:07:00,
2013-10-11 14:12:00,79.3,52.9,29.70,SW,217,15.0,22.0,40,0.00,,,0.00,Wunderground v.1.15,2013-10-11 19:12:00,
2013-10-11 14:17:00,79.7,50.4,29.70,SSW,202,15.0,25.0,36,0.00,,,0.00,Wunderground v.1.15,2013-10-11 19:17:00,
2013-10-11 14:23:00,79.5,52.4,29.70,SSW,199,15.0,24.0,39,0.00,,,0.00,Wunderground v.1.15,2013-10-11 19:23:00,
2013-10-11 14:29:00,80.2,52.3,29.70,SSW,200,14.0,24.0,38,0.00,,,0.00,Wunderground v.1.15,2013-10-11 19:29:00,
2013-10-11 14:35:00,80.2,50.1,29.70,SSW,205,14.0,21.0,35,0.00,,,0.00,Wunderground v.1.15,2013-10-11 19:35:00,
2013-10-11 14:40:00,80.6,48.8,29.70,SW,225,15.0,18.0,33,0.00,,,0.00,Wunderground v.1.15,2013-10-11 19:40:00,
2013-10-11 14:46:00,80.6,48.8,29.70,SW,225,14.0,20.0,33,0.00,,,0.00,Wunderground v.1.15,2013-10-11 19:46:00,
2013-10-11 14:51:00,80.6,47.2,29.69,SW,214,14.0,21.0,31,0.00,,,0.00,Wunderground v.1.15,2013-10-11 19:51:00,
2013-10-11 14:56:00,81.1,48.4,29.70,SW,217,14.0,22.0,32,0.00,,,0.00,Wunderground v.1.15,2013-10-11 19:56:00,
2013-10-11 15:02:00,81.2,45.0,29.70,SW,218,14.0,22.0,28,0.00,,,0.00,Wunderground v.1.15,2013-10-11 20:02:00,
2013-10-11 15:07:00,80.9,43.8,29.70,SW,228,16.0,25.0,27,0.00,,,0.00,Wunderground v.1.15,2013-10-11 20:07:00,
2013-10-11 15:12:00,81.0,44.8,29.70,SW,220,15.0,16.0,28,0.00,,,0.00,Wunderground v.1.15,2013-10-11 20:12:00,
2013-10-11 15:17:00,81.2,44.0,29.70,SW,221,14.0,20.0,27,0.00,,,0.00,Wunderground v.1.15,2013-10-11 20:17:00,
2013-10-11 15:23:00,81.5,43.3,29.70,SW,223,13.0,18.0,26,0.00,,,0.00,Wunderground v.1.15,2013-10-11 20:23:00,
2013-10-11 15:28:00,81.5,44.3,29.70,SW,235,13.0,19.0,27,0.00,,,0.00,Wunderground v.1.15,2013-10-11 20:28:00,
2013-10-11 15:34:00,81.5,41.2,29.70,SW,228,14.0,22.0,24,0.00,,,0.00,Wunderground v.1.15,2013-10-11 20:34:00,
2013-10-11 15:39:00,81.1,38.6,29.70,SSW,209,16.0,27.0,22,0.00,,,0.00,Wunderground v.1.15,2013-10-11 20:39:00,
2013-10-11 15:45:00,81.2,35.0,29.71,SW,218,17.0,27.0,19,0.00,,,0.00,Wunderground v.1.15,2013-10-11 20:45:00,
2013-10-11 15:50:00,81.1,37.5,29.71,SW,229,16.0,22.0,21,0.00,,,0.00,Wunderground v.1.15,2013-10-11 20:50:00,
2013-10-11 15:55:00,81.1,38.6,29.71,SW,216,14.0,22.0,22,0.00,,,0.00,Wunderground v.1.15,2013-10-11 20:55:00,
2013-10-11 16:01:00,81.0,37.4,29.71,SW,223,13.0,15.0,21,0.00,,,0.00,Wunderground v.1.15,2013-10-11 21:01:00,
2013-10-11 16:07:00,81.2,33.6,29.71,SSW,200,13.0,21.0,18,0.00,,,0.00,Wunderground v.1.15,2013-10-11 21:07:00,
2013-10-11 16:12:00,81.0,33.5,29.71,SSW,213,14.0,21.0,18,0.00,,,0.00,Wunderground v.1.15,2013-10-11 21:12:00,
2013-10-11 16:17:00,81.0,34.8,29.72,SW,234,14.0,21.0,19,0.00,,,0.00,Wunderground v.1.15,2013-10-11 21:17:00,
2013-10-11 16:23:00,81.0,33.5,29.72,SW,235,14.0,22.0,18,0.00,,,0.00,Wunderground v.1.15,2013-10-11 21:23:00,
2013-10-11 16:29:00,80.8,34.7,29.72,SSW,206,14.0,22.0,19,0.00,,,0.00,Wunderground v.1.15,2013-10-11 21:29:00,
2013-10-11 16:34:00,80.9,34.8,29.72,SSW,206,14.0,21.0,19,0.00,,,0.00,Wunderground v.1.15,2013-10-11 21:34:00,
2013-10-11 16:40:00,81.2,35.0,29.72,WSW,254,12.0,12.0,19,0.00,,,0.00,Wunderground v.1.15,2013-10-11 21:40:00,
2013-10-11 16:46:00,81.2,35.0,29.73,WSW,248,10.0,19.0,19,0.00,,,0.00,Wunderground v.1.15,2013-10-11 21:46:00,
2013-10-11 16:52:00,80.9,34.8,29.73,SW,221,12.0,19.0,19,0.00,,,0.00,Wunderground v.1.15,2013-10-11 21:52:00,
2013-10-11 16:57:00,81.0,33.5,29.73,WSW,253,12.0,19.0,18,0.00,,,0.00,Wunderground v.1.15,2013-10-11 21:57:00,
2013-10-11 17:02:00,81.0,34.8,29.73,SSW,198,11.0,15.0,19,0.00,,,0.00,Wunderground v.1.15,2013-10-11 22:02:00,
2013-10-11 17:09:00,80.6,33.2,29.73,SSW,209,12.0,19.0,18,0.00,,,0.00,Wunderground v.1.15,2013-10-11 22:09:00,
2013-10-11 17:14:00,80.6,35.8,29.73,SSW,210,11.0,18.0,20,0.00,,,0.00,Wunderground v.1.15,2013-10-11 22:14:00,
2013-10-11 17:20:00,80.5,34.4,29.74,SW,234,11.0,15.0,19,0.00,,,0.00,Wunderground v.1.15,2013-10-11 22:20:00,
2013-10-11 17:25:00,80.4,34.3,29.74,SW,215,11.0,17.0,19,0.00,,,0.00,Wunderground v.1.15,2013-10-11 22:25:00,
2013-10-11 17:30:00,80.2,36.7,29.74,SSW,207,10.0,10.0,21,0.00,,,0.00,Wunderground v.1.15,2013-10-11 22:30:00,
2013-10-11 17:35:00,80.1,36.6,29.74,SW,218,10.0,15.0,21,0.00,,,0.00,Wunderground v.1.15,2013-10-11 22:35:00,
2013-10-11 17:41:00,79.9,35.2,29.74,SSW,213,10.0,13.0,20,0.00,,,0.00,Wunderground v.1.15,2013-10-11 22:41:00,
2013-10-11 17:46:00,79.8,36.4,29.75,SW,222,8.0,13.0,21,0.00,,,0.00,Wunderground v.1.15,2013-10-11 22:46:00,
2013-10-11 17:52:00,79.5,34.9,29.74,South,180,9.0,18.0,20,0.00,,,0.00,Wunderground v.1.15,2013-10-11 22:52:00,
2013-10-11 17:57:00,79.2,34.6,29.75,SW,221,10.0,18.0,20,0.00,,,0.00,Wunderground v.1.15,2013-10-11 22:57:00,
2013-10-11 18:03:00,79.0,34.5,29.75,SSW,204,9.0,12.0,20,0.00,,,0.00,Wunderground v.1.15,2013-10-11 23:03:00,
2013-10-11 18:08:00,78.8,35.5,29.75,SW,232,8.0,12.0,21,0.00,,,0.00,Wunderground v.1.15,2013-10-11 23:08:00,
2013-10-11 18:14:00,78.6,35.4,29.75,SSW,205,8.0,12.0,21,0.00,,,0.00,Wunderground v.1.15,2013-10-11 23:14:00,
2013-10-11 18:19:00,78.3,35.1,29.75,SSW,205,8.0,12.0,21,0.00,,,0.00,Wunderground v.1.15,2013-10-11 23:19:00,
2013-10-11 18:25:00,77.8,35.9,29.75,SW,216,7.0,11.0,22,0.00,,,0.00,Wunderground v.1.15,2013-10-11 23:25:00,
2013-10-11 18:31:00,77.2,36.5,29.76,SSW,205,7.0,8.0,23,0.00,,,0.00,Wunderground v.1.15,2013-10-11 23:31:00,
2013-10-11 18:37:00,76.8,36.2,29.76,SW,217,6.0,9.0,23,0.00,,,0.00,Wunderground v.1.15,2013-10-11 23:37:00,
2013-10-11 18:42:00,76.4,36.9,29.76,SW,234,5.0,7.0,24,0.00,,,0.00,Wunderground v.1.15,2013-10-11 23:42:00,
2013-10-11 18:48:00,75.6,36.2,29.76,SW,221,5.0,8.0,24,0.00,,,0.00,Wunderground v.1.15,2013-10-11 23:48:00,
2013-10-11 18:53:00,75.0,36.8,29.76,SW,219,5.0,10.0,25,0.00,,,0.00,Wunderground v.1.15,2013-10-11 23:53:00,
2013-10-11 18:58:00,74.5,36.4,29.77,WSW,238,6.0,10.0,25,0.00,,,0.00,Wunderground v.1.15,2013-10-11 23:58:00,
2013-10-11 19:05:00,74.0,36.9,29.77,WSW,242,5.0,7.0,26,0.00,,,0.00,Wunderground v.1.15,2013-10-12 00:05:00,
2013-10-11 19:10:00,73.6,36.6,29.77,WSW,243,5.0,5.0,26,0.00,,,0.00,Wunderground v.1.15,2013-10-12 00:10:00,
2013-10-11 19:16:00,73.2,37.2,29.77,West,269,5.0,6.0,27,0.00,,,0.00,Wunderground v.1.15,2013-10-12 00:16:00,
2013-10-11 19:22:00,72.2,37.3,29.77,NW,306,5.0,6.0,28,0.00,,,0.00,Wunderground v.1.15,2013-10-12 00:22:00,
2013-10-11 19:28:00,71.0,38.0,29.77,WNW,282,5.0,6.0,30,0.00,,,0.00,Wunderground v.1.15,2013-10-12 00:28:00,
2013-10-11 19:33:00,69.9,38.7,29.78,WNW,287,5.0,6.0,32,0.00,,,0.00,Wunderground v.1.15,2013-10-12 00:33:00,
2013-10-11 19:38:00,68.6,38.3,29.78,WNW,294,4.0,6.0,33,0.00,,,0.00,Wunderground v.1.15,2013-10-12 00:38:00,
2013-10-11 19:44:00,67.7,39.0,29.78,WNW,294,4.0,7.0,35,0.00,,,0.00,Wunderground v.1.15,2013-10-12 00:44:00,
2013-10-11 19:49:00,67.0,39.1,29.79,WNW,289,5.0,7.0,36,0.00,,,0.00,Wunderground v.1.15,2013-10-12 00:49:00,
2013-10-11 19:54:00,66.4,39.3,29.79,WNW,296,5.0,6.0,37,0.00,,,0.00,Wunderground v.1.15,2013-10-12 00:54:00,
2013-10-11 20:00:00,65.8,38.8,29.79,NW,305,5.0,7.0,37,0.00,,,0.00,Wunderground v.1.15,2013-10-12 01:00:00,
2013-10-11 20:05:00,65.8,38.8,29.79,WNW,285,6.0,8.0,37,0.00,,,0.00,Wunderground v.1.15,2013-10-12 01:05:00,
2013-10-11 20:11:00,65.7,38.7,29.79,NW,306,6.0,8.0,37,0.00,,,0.00,Wunderground v.1.15,2013-10-12 01:11:00,
2013-10-11 20:16:00,65.9,38.2,29.80,WNW,302,6.0,8.0,36,0.00,,,0.00,Wunderground v.1.15,2013-10-12 01:16:00,
2013-10-11 20:22:00,65.8,38.8,29.80,NW,311,6.0,7.0,37,0.00,,,0.00,Wunderground v.1.15,2013-10-12 01:22:00,
2013-10-11 20:28:00,65.8,38.1,29.80,NW,304,5.0,7.0,36,0.00,,,0.00,Wunderground v.1.15,2013-10-12 01:28:00,
2013-10-11 20:34:00,65.7,38.7,29.81,WNW,300,5.0,7.0,37,0.00,,,0.00,Wunderground v.1.15,2013-10-12 01:34:00,
2013-10-11 20:39:00,65.5,38.5,29.81,NW,313,5.0,7.0,37,0.00,,,0.00,Wunderground v.1.15,2013-10-12 01:39:00,
2013-10-11 20:45:00,65.6,37.9,29.81,NW,308,6.0,8.0,36,0.00,,,0.00,Wunderground v.1.15,2013-10-12 01:45:00,
2013-10-11 20:50:00,65.9,38.2,29.81,NW,319,6.0,8.0,36,0.00,,,0.00,Wunderground v.1.15,2013-10-12 01:50:00,
2013-10-11 20:56:00,66.0,39.0,29.81,NW,325,5.0,8.0,37,0.00,,,0.00,Wunderground v.1.15,2013-10-12 01:56:00,
2013-10-11 21:01:00,66.0,39.0,29.82,NW,323,5.0,8.0,37,0.00,,,0.00,Wunderground v.1.15,2013-10-12 02:01:00,
2013-10-11 21:07:00,65.7,38.7,29.82,NW,317,6.0,8.0,37,0.00,,,0.00,Wunderground v.1.15,2013-10-12 02:07:00,
2013-10-11 21:12:00,65.4,38.4,29.82,NW,318,6.0,9.0,37,0.00,,,0.00,Wunderground v.1.15,2013-10-12 02:12:00,
2013-10-11 21:18:00,65.7,38.7,29.82,NNW,329,6.0,10.0,37,0.00,,,0.00,Wunderground v.1.15,2013-10-12 02:18:00,
2013-10-11 21:23:00,65.9,38.9,29.82,NW,313,7.0,9.0,37,0.00,,,0.00,Wunderground v.1.15,2013-10-12 02:23:00,
2013-10-11 21:29:00,65.6,39.3,29.83,NW,325,6.0,9.0,38,0.00,,,0.00,Wunderground v.1.15,2013-10-12 02:29:00,
2013-10-11 21:35:00,65.3,39.7,29.83,NNW,329,7.0,9.0,39,0.00,,,0.00,Wunderground v.1.15,2013-10-12 02:35:00,
2013-10-11 21:41:00,65.1,40.2,29.83,NNW,327,8.0,10.0,40,0.00,,,0.00,Wunderground v.1.15,2013-10-12 02:41:00,
2013-10-11 21:46:00,64.7,39.8,29.83,NNW,340,8.0,10.0,40,0.00,,,0.00,Wunderground v.1.15,2013-10-12 02:46:00,
2013-10-11 21:52:00,64.4,39.5,29.83,NW,321,8.0,9.0,40,0.00,,,0.00,Wunderground v.1.15,2013-10-12 02:52:00,
2013-10-11 21:58:00,64.2,40.0,29.84,NNW,339,7.0,10.0,41,0.00,,,0.00,Wunderground v.1.15,2013-10-12 02:58:00,
2013-10-11 22:04:00,64.0,40.4,29.84,NNW,336,7.0,8.0,42,0.00,,,0.00,Wunderground v.1.15,2013-10-12 03:04:00,
2013-10-11 22:09:00,63.8,40.3,29.84,NNW,335,7.0,10.0,42,0.00,,,0.00,Wunderground v.1.15,2013-10-12 03:09:00,
2013-10-11 22:14:00,64.0,40.4,29.84,NNW,342,8.0,11.0,42,0.00,,,0.00,Wunderground v.1.15,2013-10-12 03:14:00,
2013-10-11 22:20:00,64.6,41.0,29.85,North,355,9.0,16.0,42,0.00,,,0.00,Wunderground v.1.15,2013-10-12 03:20:00,
2013-10-11 22:25:00,66.0,41.6,29.85,North,355,12.0,23.0,41,0.00,,,0.00,Wunderground v.1.15,2013-10-12 03:25:00,
2013-10-11 22:31:00,65.3,43.4,29.85,North,5,13.0,16.0,45,0.00,,,0.00,Wunderground v.1.15,2013-10-12 03:31:00,
2013-10-11 22:36:00,64.8,43.5,29.86,North,355,13.0,18.0,46,0.00,,,0.00,Wunderground v.1.15,2013-10-12 03:36:00,
2013-10-11 22:42:00,64.4,44.3,29.86,North,5,14.0,19.0,48,0.00,,,0.00,Wunderground v.1.15,2013-10-12 03:42:00,
2013-10-11 22:48:00,64.0,44.4,29.86,North,360,14.0,19.0,49,0.00,,,0.00,Wunderground v.1.15,2013-10-12 03:48:00,
2013-10-11 22:53:00,63.7,44.7,29.86,North,355,14.0,21.0,50,0.00,,,0.00,Wunderground v.1.15,2013-10-12 03:53:00,
2013-10-11 22:59:00,63.6,45.1,29.87,North,360,14.0,21.0,51,0.00,,,0.00,Wunderground v.1.15,2013-10-12 03:59:00,
2013-10-11 23:02:00,63.4,45.5,29.87,North,9,14.0,18.0,52,0.00,,,0.00,Wunderground v.1.15,2013-10-12 04:02:00,
2013-10-11 23:03:00,63.3,45.4,29.87,North,355,14.0,18.0,52,0.00,,,0.00,Wunderground v.1.15,2013-10-12 04:03:00,
2013-10-11 23:05:00,63.2,45.3,29.87,NNE,16,14.0,18.0,52,0.00,,,0.00,Wunderground v.1.15,2013-10-12 04:05:00,
2013-10-11 23:06:00,63.2,45.3,29.87,North,5,14.0,18.0,52,0.00,,,0.00,Wunderground v.1.15,2013-10-12 04:06:00,
2013-10-11 23:09:00,63.0,45.6,29.87,NNE,19,14.0,20.0,53,0.00,,,0.00,Wunderground v.1.15,2013-10-12 04:09:00,
2013-10-11 23:15:00,62.8,45.9,29.88,NNE,12,13.0,16.0,54,0.00,,,0.00,Wunderground v.1.15,2013-10-12 04:15:00,
2013-10-11 23:20:00,62.7,45.8,29.88,North,355,12.0,15.0,54,0.00,,,0.00,Wunderground v.1.15,2013-10-12 04:20:00,
2013-10-11 23:21:00,62.7,45.8,29.88,North,5,12.0,18.0,54,0.00,,,0.00,Wunderground v.1.15,2013-10-12 04:21:00,
2013-10-11 23:27:00,62.5,46.1,29.89,North,5,11.0,18.0,55,0.00,,,0.00,Wunderground v.1.15,2013-10-12 04:27:00,
2013-10-11 23:33:00,62.2,46.3,29.89,North,349,11.0,14.0,56,0.00,,,0.00,Wunderground v.1.15,2013-10-12 04:33:00,
2013-10-11 23:39:00,61.5,46.6,29.89,North,11,10.0,14.0,58,0.00,,,0.00,Wunderground v.1.15,2013-10-12 04:39:00,
2013-10-11 23:45:00,61.0,46.6,29.89,North,360,9.0,13.0,59,0.00,,,0.00,Wunderground v.1.15,2013-10-12 04:45:00,
2013-10-11 23:51:00,60.9,46.5,29.89,North,5,9.0,11.0,59,0.00,,,0.00,Wunderground v.1.15,2013-10-12 04:51:00,
2013-10-11 23:57:00,61.0,46.6,29.89,North,5,10.0,14.0,59,0.00,,,0.00,Wunderground v.1.15,2013-10-12 04:57:00,